VE3EP-1 Weather Reports


Display with metric or nautical units.
time (UTC)temp
F
wind
direction
speed
MPH
gust
MPH
rain 1hr
in
rain 24hr
in
rain mn
in
humidity
%
barometer
mb
20260504034208 44 280 0.0 1.0 0.03 0.07 0.07 94 1010.6
20260504033208 45 5 0.0 1.0 0.04 0.07 0.07 94 1010.7
20260504032208 45 33 0.0 1.0 0.04 0.07 0.07 94 1011.0
20260504030206 45 285 1.0 2.0 0.04 0.06 0.06 93 1011.5
20260504025208 45 294 0.0 3.0 0.03 0.05 0.05 92 1011.4
20260504023208 45 291 0.0 2.0 0.02 0.03 0.03 92 1011.2
20260504022208 46 346 0.0 4.0 0.02 0.03 0.03 91 1011.1
20260504021209 46 350 1.0 4.0 0.01 0.02 0.02 91 1011.4
20260504020208 46 284 1.0 4.0 0.02 0.02 0.02 91 1011.1
20260504015208 45 268 1.0 6.0 0.02 0.02 0.02 92 1011.0
20260504013209 44 268 0.0 3.0 0.01 0.01 0.01 89 1011.4
20260504010209 44 289 1.0 6.0 0.00 0.00 0.00 84 1011.5
20260504005208 45 282 1.0 6.0 0.00 0.00 0.00 78 1011.6
20260504004208 45 267 2.0 6.0 0.00 0.00 0.00 72 1011.5
20260504003210 45 264 2.0 6.0 0.00 0.00 0.00 68 1011.3
20260504002209 45 257 3.0 6.0 0.00 0.00 0.00 66 1011.1
20260504000209 45 247 2.0 4.0 0.00 0.00 0.00 61 1011.2
20260503235208 45 257 2.0 4.0 0.00 0.00 0.00 60 1011.2
20260503234208 45 251 2.0 4.0 0.00 0.00 0.00 59 1011.3
20260503233209 44 238 1.0 3.0 0.00 0.00 0.00 60 1011.3
20260503231209 44 232 2.0 3.0 0.00 0.00 0.00 59 1011.2
20260503230209 45 234 1.0 3.0 0.00 0.00 0.00 64 1011.3
20260503223208 45 222 1.0 2.0 0.00 0.00 0.00 62 1011.3
20260503222209 45 215 1.0 2.0 0.00 0.00 0.00 61 1011.3
20260503221209 44 209 2.0 3.0 0.00 0.00 0.00 62 1011.2
20260503220208 46 245 1.0 3.0 0.00 0.00 0.00 60 1011.4
20260503215208 47 259 1.0 3.0 0.00 0.00 0.00 58 1011.7
20260503214208 48 259 1.0 4.0 0.00 0.00 0.00 55 1011.7
20260503213208 50 268 1.0 4.0 0.00 0.00 0.00 50 1011.5
20260503212208 49 293 1.0 3.0 0.00 0.00 0.00 47 1011.5
20260503210208 48 296 0.0 4.0 0.00 0.00 0.00 48 1011.8
20260503205208 49 286 1.0 4.0 0.00 0.00 0.00 50 1011.7
20260503204208 48 299 1.0 3.0 0.00 0.00 0.00 51 1011.7
20260503203209 47 299 0.0 2.0 0.00 0.00 0.00 55 1011.8
20260503202210 48 323 0.0 2.0 0.00 0.00 0.00 57 1012.1
20260503201209 50 337 1.0 3.0 0.00 0.00 0.00 52 1012.2
20260503200208 48 340 1.0 3.0 0.00 0.00 0.00 54 1012.3
20260503195208 47 317 1.0 3.0 0.00 0.00 0.00 55 1012.6
20260503194208 47 313 1.0 3.0 0.00 0.00 0.00 58 1012.7
20260503193208 46 318 1.0 2.0 0.00 0.00 0.00 59 1012.8
20260503192208 46 319 1.0 3.0 0.00 0.00 0.00 60 1013.1
20260503191208 47 316 1.0 3.0 0.00 0.00 0.00 59 1013.1
20260503185208 47 301 1.0 4.0 0.00 0.00 0.00 60 1013.7
20260503184210 46 312 1.0 4.0 0.00 0.00 0.00 61 1013.7
20260503183208 47 330 1.0 4.0 0.00 0.00 0.00 60 1013.7
20260503182208 48 320 1.0 6.0 0.00 0.00 0.00 56 1013.9
20260503181208 48 327 1.0 4.0 0.00 0.00 0.00 58 1013.8
20260503175209 49 323 1.0 3.0 0.00 0.00 0.00 56 1013.8
20260503174209 48 308 1.0 6.0 0.00 0.00 0.00 56 1014.0
20260503173208 48 320 1.0 3.0 0.00 0.00 0.00 61 1014.1
20260503172208 47 334 1.0 3.0 0.00 0.00 0.00 59 1014.0
20260503171208 47 352 1.0 6.0 0.00 0.00 0.00 57 1014.4
20260503170208 46 325 2.0 6.0 0.00 0.00 0.00 59 1014.6
20260503160208 45 335 1.0 4.0 0.00 0.00 0.00 58 1015.1
20260503150208 43 337 1.0 3.0 0.00 0.00 0.00 62 1015.8
20260503140208 43 328 1.0 3.0 0.00 0.00 0.00 65 1016.0
20260503130209 42 294 1.0 3.0 0.00 0.00 0.00 69 1016.1
20260503110208 38 8 0.0 2.0 0.00 0.00 0.00 64 1015.9
20260503100208 36 17 0.0 3.0 0.00 0.00 0.00 67 1015.7
20260503090208 38 13 1.0 4.0 0.00 0.00 0.00 64 1015.6
20260503081208 39 20 2.0 4.0 0.00 0.00 0.00 63 1015.9
20260503080209 39 15 1.0 4.0 0.00 0.00 0.00 64 1016.0
20260503072209 40 13 2.0 6.0 0.00 0.00 0.00 65 1015.7
20260503071208 40 15 2.0 6.0 0.00 0.00 0.00 64 1015.8
20260503070209 41 11 3.0 6.0 0.00 0.00 0.00 62 1015.9
20260503060208 41 8 3.0 8.0 0.00 0.00 0.00 66 1016.1
20260503054209 42 12 3.0 6.0 0.00 0.00 0.00 66 1016.0
20260503053208 42 14 3.0 7.0 0.00 0.00 0.00 68 1016.0
20260503052209 42 16 2.0 6.0 0.00 0.00 0.00 67 1016.2
20260503051208 42 8 2.0 6.0 0.00 0.00 0.00 70 1016.3
20260503050209 42 9 2.0 4.0 0.00 0.00 0.00 70 1016.1
20260503045208 42 10 2.0 6.0 0.00 0.00 0.00 72 1016.4
20260503044209 42 13 2.0 4.0 0.00 0.00 0.00 73 1016.4
20260503043208 42 17 2.0 6.0 0.00 0.00 0.00 75 1016.3
20260503042208 42 15 2.0 6.0 0.00 0.00 0.00 75 1016.5
20260503035208 42 12 2.0 4.0 0.00 0.00 0.00 78 1016.5